Regional Weather Roundup
Issued by NWS Grand Forks, ND

Home | Current Version | Previous Version | Text Only | Print | Product List | Glossary On
Versions: 1 2 3 4 5 6 7 8 9 10 11 12 13 14 15 16 17 18 19 20 21 22 23 24 25 26 27 28 29 30 31 32 33 34 35 36 37 38 39 40 41 42 43 44 45 46 47 48 49 50
730
ASUS43 KFGF 280031
RWRFGF
PRAIRIE TO PINES  WEATHER ROUNDUP
NATIONAL WEATHER SERVICE EASTERN NORTH DAKOTA/GRAND FORKS ND
700 PM CDT WED JUL 27 2016

 **SATELLITE DATA USED TO AUGMENT SKY COVER AT AUTOMATED STATIONS**
 *****  WEATHER ACROSS EASTERN NORTH DAKOTA  *****

CITY           SKY/WX    TMP DP  RH WIND       PRES   REMARKS
GRAND FORKS    CLOUDY    75  59  57 N13       30.03S
6HR MIN TEMP:  75; 6HR MAX TEMP:  78;

GRAND FRKS AFB CLOUDY    74  58  55 N14       30.05S
GRAND FRKS NWS   N/A     72 N/A N/A VRB13       N/A
DEVILS LAKE    MOSUNNY   71  53  52 N14       30.11S
6HR MIN TEMP:  70; 6HR MAX TEMP:  73;

FARGO          MOSUNNY   77  58  51 N13       30.01S
WAHPETON ARPT  CLEAR     73  54  49 N12       30.01F
$$

 ***** WEATHER ACROSS CENTRAL AND WESTERN NORTH DAKOTA  *****

CITY           SKY/WX    TMP DP  RH WIND       PRES   REMARKS
BISMARCK       PTSUNNY   74  61  63 E5        30.09R
6HR MIN TEMP:  74; 6HR MAX TEMP:  78;

MINOT          CLOUDY    75  59  57 NE8       30.11S
6HR MIN TEMP:  75; 6HR MAX TEMP:  80;

JAMESTOWN      PTSUNNY   73  59  61 N7        30.08R
6HR MIN TEMP:  73; 6HR MAX TEMP:  76;

MINOT AFB      MOSUNNY   73  57  56 NE7       30.11S
GARRISON         N/A     72  59  63 E9        30.11R
WILLISTON      CLOUDY    68  61  78 E9        30.13F
6HR MIN TEMP:  65; 6HR MAX TEMP:  74; 6HR PCP:  0.03;

DICKINSON      PTSUNNY   73  58  59 NE7       30.10F
6HR MIN TEMP:  70; 6HR MAX TEMP:  74;

HETTINGER      PTSUNNY   75  59  57 NE8       30.13F
6HR MIN TEMP:  65; 6HR MAX TEMP:  75; 6HR PCP:  0.01;

$$

 *****  OTHER AIRPORT OBSERVATIONS IN OUR AREA  *****

CITY           SKY/WX    TMP DP  RH WIND       PRES   REMARKS
WALHALLA       FAIR      68  66  94 N9        30.10S
GRAFTON AIRPOR FAIR      73  57  56 N15       30.07S
VALLEY CITY AR FAIR      72  59  64 N8        30.10R
CANDO          FAIR      70  55  60 NE12      30.14R
CAVALIER APRT  FAIR      72  55  56 N13G18    30.08S
GWINNER        FAIR      73  57  56 N10       30.07R
SHEYENNE NWR     N/A     77  56  48 N8        29.95S
ROLLA          FAIR      68  54  60 NE12      30.14S
 ***** THE ABOVE OBSERVATIONS ARE NON NWS ARE NOT QUALITY
       CONTROLLED AND MAY MIS-REPORT RAIN FOR SNOW...
$$

  *****  WEATHER ACROSS NORTHERN MINNESOTA  *****

CITY           SKY/WX    TMP DP  RH WIND       PRES   REMARKS
FLAG ISLAND    SUNNY     72  55  56 NE14      30.07R
WARROAD        SUNNY     73  63  68 NE15      30.07S
ROSEAU         MOSUNNY   72  63  73 NE8       30.06R
HALLOCK        CLOUDY    73  57  56 N14G23    30.05S
THF RVR FALLS  MOSUNNY   75  60  59 NE12      30.04S
6HR MIN TEMP:  73; 6HR MAX TEMP:  79;

BAUDETTE       SUNNY     74  58  57 N10       30.05R
6HR MIN TEMP:  74; 6HR MAX TEMP:  80;

WASKISH        SUNNY     73  61  64 CALM      30.03S
CROOKSTON      PTSUNNY   75  61  60 N15       30.03R
STEPHEN NDAWN    N/A    N/A N/A N/A N12         N/A
GREENBUSH NDAW   N/A    N/A N/A N/A N7          N/A
$$
  *****  WEATHER ACROSS CENTRAL AND WEST MINNESOTA  *****

CITY           SKY/WX    TMP DP  RH WIND       PRES   REMARKS
FOSSTON        MOSUNNY   72  63  73 E3        30.02F
BEMIDJI        SUNNY     72  61  68 NE8       30.03S
PARK RAPIDS    MOSUNNY   73  61  65 NE12      30.01F
6HR MIN TEMP:  70; 6HR MAX TEMP:  78;

ELBOW LAKE     FAIR      74  59  60 W12       30.01R
WADENA         SUNNY     72  63  73 NE9       30.00R
DETROIT LAKES  MOSUNNY   73  63  68 NE8       30.02S
MOORHEAD       MOSUNNY   73  61  64 N8        30.02R
FERGUS FALLS   SUNNY     73  57  56 NW9       30.02R
MORRIS MN      SUNNY     77  61  57 N10       29.99S
STAPLES        PTSUNNY   72  63  73 NE7       29.99S
$$
  *****  WEATHER ELSEWHERE ACROSS MINNESOTA  *****

CITY           SKY/WX    TMP DP  RH WIND       PRES   REMARKS
DULUTH         PTSUNNY   65  58  78 NE7       30.03F
6HR MIN TEMP:  62; 6HR MAX TEMP:  66; 6HR PCP: TRACE;

INTRNTL FALLS  SUNNY     74  54  49 NE9       30.04R
6HR MIN TEMP:  73; 6HR MAX TEMP:  78;

ELY            CLOUDY    70  61  73 CALM      30.04R
CLOQUET        CLOUDY    64  55  72 NE7       30.03S
WHEATON        SUNNY     79  63  57 NW12G17   30.02S
BRAINERD       MOSUNNY   69  63  81 NE12      30.00F
6HR MIN TEMP:  67; 6HR MAX TEMP:  73; 6HR PCP:  0.21;

HIBBING        CLOUDY    66  65  96 CALM      30.04R
6HR MIN TEMP:  63; 6HR MAX TEMP:  72; 6HR PCP:  0.01;

ALEXANDRIA     SUNNY     76  61  59 N8        30.00F
6HR MIN TEMP:  73; 6HR MAX TEMP:  79;

SAINT CLOUD    MOSUNNY   74  65  73 N8        29.96F
6HR MIN TEMP:  70; 6HR MAX TEMP:  78; 6HR PCP: TRACE;

MINNEAPOLIS    PTSUNNY   74  65  73 N8        29.94S
6HR MIN TEMP:  71; 6HR MAX TEMP:  79; 6HR PCP:  0.47;

$$

  *****  WEATHER ACROSS SOUTH DAKOTA  *****

CITY           SKY/WX    TMP DP  RH WIND       PRES   REMARKS
SIOUX FALLS    MOSUNNY   79  63  57 N14       29.98S
6HR MIN TEMP:  79; 6HR MAX TEMP:  83;

BROOKINGS      MOSUNNY   77  63  61 N12       30.01S
WATERTOWN      SUNNY     78  59  51 N14       30.04R
6HR MIN TEMP:  78; 6HR MAX TEMP:  82;

HURON          PTSUNNY   80  62  54 NE13      30.00S
6HR MIN TEMP:  79; 6HR MAX TEMP:  84;

SISSETON         N/A     77  58  51 NE9       30.01S
ABERDEEN       PTSUNNY   77  58  51 N9        30.06R
6HR MIN TEMP:  77; 6HR MAX TEMP:  81;

MITCHELL       CLOUDY    82  64  54 NE7       30.00S
PIERRE         LGT RAIN  76  63  64 E8        30.04R
6HR MIN TEMP:  76; 6HR MAX TEMP:  88; 6HR PCP: TRACE;

MOBRIDGE       LGT RAIN  75  62  64 NE9       30.03F
RAPID CITY     SUNNY     79  59  50 NE7       30.10F
6HR MIN TEMP:  76; 6HR MAX TEMP:  83; 6HR PCP: TRACE;

$$

  *****  SOME WEATHER IN NEARBY STATES *****

CITY           SKY/WX    TMP DP  RH WIND       PRES   REMARKS
GLASGOW MT     HVY RAIN  64  61  90 NE16      30.12S FOG
6HR MIN TEMP:  64; 6HR MAX TEMP:  77; 6HR PCP:  0.05;

GREAT FALLS MT CLOUDY    82  47  29 NE9       30.13F
6HR MIN TEMP:  75; 6HR MAX TEMP:  86;

CHEYENNE WY    MOSUNNY   79  52  38 SE7       30.20F
6HR MIN TEMP:  73; 6HR MAX TEMP:  85; 6HR PCP:  0.01;

SCOTTSBLUFF NE MOSUNNY   85  56  37 E14       30.07F THUNDER
6HR MIN TEMP:  78; 6HR MAX TEMP:  90;

OMAHA NE       MOSUNNY   85  70  60 N7        29.92F
6HR MIN TEMP:  82; 6HR MAX TEMP:  88;

DES MOINES IA  PTSUNNY   84  67  56 W3        29.90F
6HR MIN TEMP:  82; 6HR MAX TEMP:  86;

DAVENPORT IA   MOSUNNY   82  69  64 SW5       29.91F
6HR MIN TEMP:  82; 6HR MAX TEMP:  85;

CHICAGO IL     CLOUDY    83  62  49 E9        29.91F
6HR MIN TEMP:  83; 6HR MAX TEMP:  89;

EAU CLAIRE WI  LGT RAIN  68  67  96 NE7       29.95S
6HR MIN TEMP:  68; 6HR MAX TEMP:  83; 6HR PCP:  0.28;

LA CROSSE WI   MOSUNNY   82  67  60 W8        29.92R
6HR MIN TEMP:  82; 6HR MAX TEMP:  86;

$$

  *****  SOME NATIONAL WEATHER *****

CITY           SKY/WX    TMP DP  RH WIND       PRES   REMARKS
LA GUARDIA NY  PTCLDY    88  64  44 S8        29.88R
6HR MIN TEMP:  87; 6HR MAX TEMP:  94;

RALEIGH NC     MOCLDY    84  71  65 VRB7      29.95R
6HR MIN TEMP:  84; 6HR MAX TEMP:  95;

ATLANTA GA     PTCLDY    88  68  51 SW10      30.02S HX  91
6HR MIN TEMP:  85; 6HR MAX TEMP:  92;

NEW ORLEANS LA PTSUNNY   86  72  62 SE6       30.00F HX  92
6HR MIN TEMP:  82; 6HR MAX TEMP:  87;

OKLAHOMA CITY  TSTM      75  69  81 S10       29.94R
6HR MIN TEMP:  72; 6HR MAX TEMP:  93; 6HR PCP:  0.27;

ALBUQUERQUE NM CLOUDY    91  49  23 E22       30.10F
6HR MIN TEMP:  83; 6HR MAX TEMP:  93;

SALT LAKE CITY MOSUNNY  100  27   7 CALM      30.05F HX  93
6HR MIN TEMP:  95; 6HR MAX TEMP: 101;

LOS ANGELES CA MOSUNNY   77  65  66 W13       29.89F
6HR MIN TEMP:  76; 6HR MC1F1C2F2C3F3C4F4C5F5C6F6C7F7C8F8C9F9CaFaCbFbCcFcCd!



USA.gov is the U.S. government's official web portal to all federal, state and local government web resources and services.